Weather observations for the past three days for
Lawton, Lawton Municipal Airport
Imperial (Metric)
Date Time (cdt) Wind (mph) Vis. (mi.) Weather Sky Cond. Temperature (ºF) Relative Humidity Wind Chill (°F) Heat Index (°F) Pressure Precipitation (in)
Air Dwpt 6 hour altimeter (in) sea level (mb) 1 hr 3 hr 6 hr
Max. Min.
21 02:53 SE 3 10.00 Fair CLR 78.1 71.1 79% 80 30.16 1019.8
21 01:53 SE 6 10.00 Fair CLR 78.1 71.1 79% 80 30.17 1020.2
21 00:53 E 5 10.00 Fair CLR 78.1 71.1 89.1 78.1 79% 80 30.17 1020.2
20 23:53 SE 6 10.00 Fair CLR 79 70 74% 82 30.16 1019.9
20 22:53 SE 5 10.00 Fair CLR 79 70 74% 82 30.15 1019.8
20 21:53 SE 6 8.00 Fair CLR 81 70 69% 84 30.15 1019.5
20 20:53 SE 7 10.00 Fair CLR 84 69.1 61% 88 30.14 1019.2
20 19:53 E 13 10.00 Fair CLR 87.1 69.1 55% 91 30.13 1018.8
20 18:53 E 12 10.00 A Few Clouds FEW044 89.1 69.1 91.9 87.1 52% 94 30.12 1018.7
20 17:53 E 12 10.00 Fair CLR 88 68 52% 92 30.14 1019.3
20 16:53 E 10 10.00 A Few Clouds FEW090 88 66.9 50% 91 30.16 1020.0
20 15:53 SE 10 10.00 A Few Clouds FEW050 90 66 45% 93 30.18 1020.6
20 14:53 SE 9 10.00 Partly Cloudy SCT047 SCT065 91 66 44% 94 30.19 1021.0
20 13:53 SE 12 10.00 Partly Cloudy SCT042 90 69.1 50% 95 30.21 1021.7
20 12:53 E 6 10.00 Partly Cloudy SCT030 88 70 88 73 55% 93 30.23 1022.3
20 11:53 SE 5 10.00 Fair CLR 84 72 67% 90 30.24 1022.7
20 10:53 S 8 10.00 Mostly Cloudy BKN018 BKN025 81 72 74% 85 30.24 1023.0
20 09:53 SE 7 9.00 Mostly Cloudy BKN014 80.1 72 76% 84 30.23 1022.5
20 08:53 SE 10 9.00 Partly Cloudy SCT014 78.1 71.1 79% 80 30.22 1022.0
20 07:53 E 8 9.00 Fair CLR 75.9 70 82% 77 30.2 1021.3
20 06:53 NE 5 9.00 Partly Cloudy SCT055 73 69.1 77 71.1 87% 30.18 1020.8
20 05:53 NE 5 10.00 Partly Cloudy SCT055 73 68 84% 30.17 1020.2
20 04:53 NE 5 10.00 Partly Cloudy SCT110 73 68 84% 30.15 1019.7
20 03:53 NE 3 10.00 A Few Clouds FEW110 72 68 87% 30.15 1019.5
20 02:53 Calm 10.00 Fair CLR 75 66.9 76% 76 30.15 1019.5
20 01:53 SE 7 10.00 Overcast OVC100 77 66.9 71% 79 30.16 1019.8
20 00:53 E 5 10.00 Overcast OVC095 77 66.9 88 75.9 71% 79 30.17 1020.4
19 23:53 E 7 10.00 Overcast OVC090 77 66.9 71% 79 30.18 1020.6
19 22:53 E 6 10.00 Mostly Cloudy BKN085 77 66 69% 79 30.16 1020.1
19 21:53 E 8 10.00 Fair CLR 79 64.9 62% 81 30.14 1019.4
19 20:53 E 13 10.00 Fair CLR 82.9 64.9 55% 85 30.12 1018.6
19 19:53 SE 16 10.00 Fair CLR 86 66 51% 88 30.09 1017.5
19 18:53 SE 10 10.00 Mostly Cloudy SCT060 SCT075 BKN085 87.1 64.9 91 86 48% 89 30.07 1017.1
19 17:53 SE 14 10.00 Fair CLR 90 64 42% 91 30.07 1016.8
19 16:53 E 12 10.00 Mostly Cloudy FEW049 BKN080 91 66.9 45% 94 30.07 1017.0
19 15:53 E 13 10.00 Overcast FEW047 FEW055 OVC070 88 66.9 50% 91 30.09 1017.4
19 14:53 E 14 10.00 Overcast BKN060 OVC070 88 66 48% 90 30.09 1017.6
19 13:53 E 12 10.00 Mostly Cloudy SCT044 BKN060 87.1 66.9 51% 90 30.1 1018.0
19 12:53 SE 8 10.00 Partly Cloudy SCT039 SCT049 87.1 66.9 87.1 73.9 51% 90 30.12 1018.5
19 11:53 SE 10 10.00 A Few Clouds FEW055 86 69.1 57% 90 30.13 1018.9
19 10:53 E 5 10.00 Overcast BKN039 BKN050 OVC070 81 69.1 67% 84 30.13 1019.0
19 09:53 SE 7 10.00 Partly Cloudy SCT028 81 69.1 67% 84 30.13 1018.8
19 08:53 SE 13 10.00 A Few Clouds FEW025 79 68 69% 81 30.1 1018.0
19 07:53 E 7 10.00 Fair CLR 77 68 74% 79 30.09 1017.7
19 06:53 E 5 10.00 Fair CLR 73.9 68 79 73 82% 30.07 1016.8
19 05:53 NE 5 10.00 Fair CLR 73.9 66.9 79% 30.03 1015.6
19 04:53 SE 9 G 18 10.00 Fair CLR 75.9 66.9 74% 77 29.98 1013.7
19 03:53 SE 13 G 23 10.00 Fair CLR 77 66.9 71% 79 29.94 1012.4
19 02:53 SE 13 10.00 Fair CLR 78.1 69.1 74% 80 29.91 1011.5
19 01:53 SE 12 G 21 10.00 Partly Cloudy SCT045 79 69.1 72% 82 29.94 1012.4
19 00:53 SE 10 10.00 A Few Clouds FEW043 78.1 69.1 88 78.1 74% 80 29.93 1012.1
18 23:53 E 10 10.00 Mostly Cloudy BKN050 80.1 69.1 69% 83 29.94 1012.3
18 22:53 SE 12 10.00 Fair CLR 82.9 68 61% 86 29.9 1011.0
18 21:53 SE 13 10.00 Fair CLR 84 68 59% 87 29.86 1009.7
18 20:53 SE 14 9.00 Overcast OVC065 86 66.9 53% 89 29.84 1009.0
18 19:53 S 18 G 26 9.00 Overcast OVC070 88 66.9 50% 91 29.82 1008.3
18 18:53 S 17 G 29 10.00 Mostly Cloudy BKN060 88 68 91.9 86 52% 92 29.8 1007.7
18 17:53 SE 21 G 35 10.00 Mostly Cloudy and Breezy BKN050 91 68 47% 95 29.77 1006.8
18 16:53 S 25 G 37 10.00 Mostly Cloudy and Breezy BKN060 90 69.1 50% 95 29.8 1007.5
18 15:53 S 25 G 33 10.00 Overcast and Breezy SCT047 OVC055 88 69.1 54% 92 29.82 1008.2
18 14:53 S 21 G 33 10.00 Mostly Cloudy and Breezy BKN042 90 69.1 50% 95 29.81 1007.8
18 13:53 SE 22 G 36 10.00 A Few Clouds and Breezy FEW041 89.1 69.1 52% 94 29.79 1007.1
18 12:53 S 23 G 32 10.00 Overcast and Breezy OVC042 86 69.1 87.1 75.9 57% 90 29.82 1008.5
18 11:53 S 24 G 35 10.00 Overcast and Breezy OVC041 84.9 69.1 59% 89 29.83 1008.6
18 10:53 S 22 G 30 10.00 Overcast and Breezy OVC034 82 69.1 65% 85 29.84 1008.8
18 09:53 S 21 G 33 10.00 Mostly Cloudy and Breezy BKN030 82 68 63% 85 29.83 1008.8
18 08:53 S 22 G 35 10.00 Partly Cloudy and Breezy SCT025 79 68 69% 81 29.83 1008.7
18 07:53 S 28 G 41 10.00 Fair and Windy CLR 75.9 66.9 74% 77 29.78 1007.1
18 06:53 S 22 G 35 10.00 Fair and Breezy CLR 75.9 66.9 82 75.9 74% 77 29.77 1006.5
18 05:53 S 18 G 31 10.00 Fair CLR 75.9 68 77% 77 29.78 1006.8
18 03:53 S 17 G 29 9.00 Fair CLR 79 71.1 77% 82 29.75 1005.9
Date Time (cdt) Wind (mph) Vis. (mi.) Weather Sky Cond. Air Dwpt Max. Min. Relative Humidity Wind Chill (°F) Heat Index (°F) altimeter (in) sea level (mb) 1 hr 3 hr 6 hr
6 hour
Temperature (ºF) Pressure Precipitation (in)